EW0610 Weather Reports


time (UTC)temp
C
wind
direction
speed
KPH
gust
KPH
rain 1hr
cm
rain 24hr
cm
rain mn
cm
humidity
%
barometer
mb
20260509174035 29 35 0.0 14.5 0.00 0.00 0.00 50 1010.0
20260509173526 29 35 1.6 16.1 0.00 0.00 0.00 50 1010.1
20260509173031 29 340 3.2 16.1 0.00 0.00 0.00 50 1010.1
20260509172539 29 346 0.0 14.5 0.00 0.00 0.00 51 1010.1
20260509172029 29 20 1.6 17.7 0.00 0.00 0.00 50 1010.2
20260509171601 29 29 4.8 17.7 0.00 0.00 0.00 51 1010.2
20260509171025 29 28 1.6 14.5 0.00 0.00 0.00 51 1010.3
20260509170532 28 6 3.2 9.7 0.00 0.00 0.00 51 1010.3
20260509170119 28 301 4.8 14.5 0.00 0.00 0.00 53 1010.4
20260509165532 28 302 0.0 14.5 0.00 0.00 0.00 53 1010.3
20260509165039 28 347 3.2 11.3 0.00 0.00 0.00 52 1010.5
20260509164526 28 327 3.2 16.1 0.00 0.00 0.00 51 1010.4
20260509164032 28 320 3.2 16.1 0.00 0.00 0.00 53 1010.5
20260509163535 28 322 1.6 9.7 0.00 0.00 0.00 55 1010.5
20260509163023 28 318 1.6 14.5 0.00 0.00 0.00 52 1010.6
20260509162529 28 340 4.8 14.5 0.00 0.00 0.00 52 1010.6
20260509162048 28 11 1.6 14.5 0.00 0.00 0.00 54 1010.6
20260509161605 28 306 1.6 11.3 0.00 0.00 0.00 56 1010.5
20260509161044 27 358 8.0 11.3 0.00 0.00 0.00 54 1010.5
20260509160527 27 318 3.2 11.3 0.00 0.00 0.00 56 1010.5
20260509160034 27 323 3.2 8.0 0.00 0.00 0.00 54 1010.5
20260509155523 27 312 4.8 17.7 0.00 0.00 0.00 56 1010.3
20260509155042 27 311 3.2 17.7 0.00 0.00 0.00 56 1010.3
20260509154526 27 313 0.0 19.3 0.00 0.00 0.00 57 1010.3
20260509154032 27 293 6.4 19.3 0.00 0.00 0.00 55 1010.3
20260509153523 27 331 1.6 17.7 0.00 0.00 0.00 57 1010.3
20260509153027 26 288 6.4 17.7 0.00 0.00 0.00 58 1010.4
20260509152537 26 299 8.0 22.5 0.00 0.00 0.00 58 1010.4
20260509152042 26 297 14.5 22.5 0.00 0.00 0.00 58 1010.4
20260509151526 26 316 4.8 17.7 0.00 0.00 0.00 58 1010.5
20260509151057 26 308 4.8 20.9 0.00 0.00 0.00 59 1010.5
20260509150523 26 299 6.4 20.9 0.00 0.00 0.00 59 1010.5
20260509150032 26 310 6.4 20.9 0.00 0.00 0.00 58 1010.5
20260509145521 25 294 6.4 19.3 0.00 0.00 0.00 58 1010.6
20260509145027 25 310 6.4 19.3 0.00 0.00 0.00 59 1010.6
20260509144552 25 324 6.4 19.3 0.00 0.00 0.00 61 1010.5
20260509144032 25 289 3.2 14.5 0.00 0.00 0.00 64 1010.4
20260509143540 25 297 4.8 19.3 0.00 0.00 0.00 65 1010.5
20260509143027 24 301 8.0 19.3 0.00 0.00 0.00 67 1010.5
20260509142531 24 301 4.8 16.1 0.00 0.00 0.00 68 1010.5
20260509142037 24 343 4.8 14.5 0.00 0.00 0.00 68 1010.5
20260509141544 24 318 1.6 9.7 0.00 0.00 0.00 73 1010.5
20260509141023 23 312 3.2 8.0 0.00 0.00 0.00 74 1010.5
20260509140531 23 309 1.6 6.4 0.00 0.00 0.00 75 1010.5
20260509140020 23 349 0.0 0.0 0.00 0.00 0.00 77 1010.6
20260509135529 23 339 0.0 3.2 0.00 0.00 0.00 78 1010.6
20260509135031 22 343 0.0 11.3 0.00 0.00 0.00 78 1010.6
20260509134519 22 306 1.6 11.3 0.00 0.03 0.00 80 1010.6
20260509134045 22 315 0.0 6.4 0.00 0.03 0.00 80 1010.5
20260509133542 22 306 1.6 9.7 0.00 0.03 0.00 81 1010.5
20260509133042 22 304 1.6 9.7 0.00 0.03 0.00 82 1010.4
20260509132551 21 316 3.2 9.7 0.00 0.03 0.00 83 1010.4
20260509132037 21 297 0.0 8.0 0.00 0.03 0.00 84 1010.4
20260509131545 21 326 1.6 6.4 0.00 0.03 0.00 85 1010.4
20260509131031 21 302 0.0 6.4 0.00 0.03 0.00 85 1010.4
20260509130531 21 302 0.0 9.7 0.00 0.03 0.00 86 1010.4
20260509130038 20 288 1.6 9.7 0.00 0.03 0.00 86 1010.4
20260509125543 20 289 1.6 8.0 0.00 0.03 0.00 86 1010.5
20260509125046 20 290 0.0 8.0 0.00 0.03 0.00 86 1010.5
20260509124548 20 290 1.6 8.0 0.00 0.20 0.00 86 1010.4
20260509124031 20 307 0.0 0.0 0.00 0.20 0.00 87 1010.5
20260509123531 20 308 0.0 0.0 0.00 0.20 0.00 87 1010.3
20260509123039 20 308 0.0 0.0 0.00 0.20 0.00 87 1010.4
20260509122530 20 308 0.0 0.0 0.00 0.20 0.00 86 1010.3
20260509122036 20 308 0.0 6.4 0.00 0.20 0.00 86 1010.3
20260509121522 20 307 0.0 6.4 0.00 0.20 0.00 86 1010.3
20260509121030 20 307 1.6 9.7 0.00 0.20 0.00 86 1010.2
20260509120537 20 306 0.0 9.7 0.00 0.20 0.00 86 1010.1
20260509120025 20 320 0.0 4.8 0.00 0.20 0.00 86 1010.1
20260509115528 20 319 1.6 4.8 0.00 0.20 0.00 86 1010.1
20260509115030 20 316 0.0 9.7 0.00 0.20 0.00 85 1010.0
20260509114541 20 301 1.6 9.7 0.00 0.20 0.00 85 1009.9
20260509114043 20 327 0.0 6.4 0.00 0.20 0.00 85 1009.8
20260509113537 20 343 1.6 8.0 0.00 0.20 0.00 85 1009.6
20260509113023 20 308 1.6 12.9 0.00 0.20 0.00 85 1009.5
20260509112532 20 292 3.2 14.5 0.00 0.20 0.00 84 1009.5
20260509112038 20 326 3.2 14.5 0.00 0.20 0.00 84 1009.5
20260509111547 20 297 1.6 12.9 0.00 0.20 0.00 84 1009.5
20260509111058 20 290 0.0 14.5 0.00 0.20 0.00 83 1009.5
20260509110546 20 296 8.0 16.1 0.00 0.20 0.00 83 1009.0
20260509110033 20 276 6.4 16.1 0.00 0.20 0.00 83 1009.3
20260509105524 20 280 8.0 19.3 0.00 0.20 0.00 82 1009.1
20260509105029 20 291 9.7 19.3 0.00 0.20 0.00 82 1009.0
20260509104532 20 286 8.0 16.1 0.00 0.79 0.00 82 1009.0
20260509104039 20 277 1.6 9.7 0.00 0.79 0.00 82 1008.9
20260509103528 20 258 0.0 9.7 0.00 0.79 0.00 81 1009.0
20260509103021 20 257 6.4 9.7 0.00 0.79 0.00 81 1008.9
20260509102531 20 251 1.6 9.7 0.00 0.79 0.00 80 1008.7
20260509102023 20 253 0.0 8.0 0.00 0.79 0.00 79 1008.7
20260509101550 20 264 0.0 4.8 0.00 0.79 0.00 79 1008.7
20260509101041 20 291 0.0 4.8 0.00 0.79 0.00 78 1008.6
20260509100529 20 291 0.0 0.0 0.00 0.79 0.00 77 1008.6
20260509100032 21 291 0.0 0.0 0.00 0.79 0.00 77 1008.7
20260509095541 21 291 0.0 0.0 0.00 0.79 0.00 76 1008.5
20260509095027 21 291 0.0 0.0 0.00 0.79 0.00 76 1008.4
20260509094529 21 291 0.0 4.8 0.00 0.89 0.00 75 1008.3
20260509094048 21 291 0.0 4.8 0.00 0.89 0.00 75 1008.2
20260509093538 21 291 0.0 1.6 0.00 0.89 0.00 74 1008.1
20260509093043 21 291 0.0 6.4 0.00 0.89 0.00 73 1008.0
20260509092525 22 291 1.6 6.4 0.00 0.89 0.00 72 1008.0
20260509092029 22 291 3.2 6.4 0.00 0.89 0.00 71 1007.9
20260509091540 22 327 0.0 4.8 0.00 0.89 0.00 70 1007.8
20260509091029 22 328 1.6 4.8 0.00 0.89 0.00 69 1007.8
20260509090557 22 264 0.0 4.8 0.00 0.89 0.00 68 1007.9
20260509090025 22 220 0.0 1.6 0.00 0.89 0.00 69 1007.8
20260509085531 22 247 0.0 20.9 0.00 0.89 0.00 71 1007.7
20260509085041 22 344 6.4 46.7 0.00 0.89 0.00 72 1008.1
20260509084526 22 251 20.9 46.7 0.00 0.91 0.00 72 1008.3
20260509084033 22 299 8.0 29.0 0.00 0.91 0.00 76 1008.0
20260509083525 22 229 12.9 29.0 0.00 0.91 0.00 75 1005.8
20260509083030 22 202 12.9 24.1 0.00 0.91 0.00 75 1005.7
20260509082532 21 191 11.3 20.9 0.00 0.91 0.00 77 1005.2
20260509082021 21 168 16.1 20.9 0.00 0.91 0.00 77 1005.4
20260509081559 21 237 14.5 19.3 0.00 0.91 0.00 77 1006.3
20260509081048 21 138 8.0 19.3 0.00 0.91 0.00 79 1005.4
20260509080536 21 206 9.7 22.5 0.00 0.91 0.00 81 1006.0
20260509080023 21 206 8.0 22.5 0.00 0.91 0.00 83 1006.5
20260509075526 21 200 14.5 22.5 0.00 0.91 0.00 84 1007.1
20260509075026 21 207 6.4 17.7 0.00 0.91 0.00 85 1007.6
20260509074531 21 217 6.4 17.7 0.00 1.19 0.00 85 1008.0
20260509074058 21 225 1.6 20.9 0.00 1.19 0.00 85 1008.4
20260509073525 21 227 11.3 24.1 0.00 1.19 0.00 86 1008.7
20260509073029 21 214 17.7 24.1 0.00 1.19 0.00 86 1008.9
20260509072539 21 237 8.0 20.9 0.00 1.19 0.00 86 1009.2
20260509072037 21 226 4.8 19.3 0.00 1.19 0.00 86 1009.3
20260509071538 20 245 1.6 16.1 0.00 1.19 0.00 86 1009.4
20260509071023 20 274 1.6 6.4 0.00 1.19 0.00 86 1009.5
20260509070558 20 213 0.0 16.1 0.00 1.19 0.00 86 1009.6
20260509070023 20 232 0.0 16.1 0.00 1.19 0.00 86 1010.0
20260509065547 20 219 3.2 11.3 0.00 1.19 0.00 86 1010.3
20260509065033 20 239 0.0 14.5 0.00 1.19 0.00 87 1010.2
20260509064536 20 224 0.0 14.5 0.00 1.19 0.00 86 1010.1
20260509064041 20 218 0.0 0.0 0.00 1.19 0.00 86 1010.4
20260509063548 20 249 0.0 3.2 0.00 1.19 0.00 86 1010.7
20260509063035 20 248 0.0 3.2 0.00 1.19 0.00 86 1010.7
20260509062545 20 230 0.0 0.0 0.00 1.19 0.00 86 1010.6
20260509062033 20 225 0.0 0.0 0.00 1.19 0.00 86 1010.7
20260509061533 20 254 0.0 0.0 0.00 1.19 0.00 85 1010.8
20260509061040 20 254 0.0 0.0 0.00 1.19 0.00 85 1010.8
20260509060546 20 260 0.0 0.0 0.00 1.19 0.00 85 1010.7
20260509060057 20 274 0.0 0.0 0.00 1.19 0.00 84 1010.6
20260509055538 20 275 0.0 4.8 0.00 1.19 1.19 84 1010.6
20260509055027 21 276 0.0 4.8 0.00 1.19 1.19 84 1010.6
20260509054559 21 283 0.0 4.8 0.00 1.19 1.19 84 1010.4
20260509054042 21 343 0.0 3.2 0.00 1.19 1.19 84 1010.3
20260509053555 21 344 0.0 0.0 0.00 1.19 1.19 83 1010.7
20260509053025 21 344 0.0 0.0 0.00 1.19 1.19 83 1010.7
20260509052559 21 343 0.0 0.0 0.00 1.19 1.19 83 1010.6
20260509052045 21 344 0.0 0.0 0.00 1.19 1.19 82 1011.0
20260509051529 21 344 0.0 4.8 0.00 1.19 1.19 82 1011.0
20260509051036 21 346 0.0 4.8 0.00 1.19 1.19 81 1011.3
20260509050524 21 344 0.0 4.8 0.00 1.19 1.19 81 1011.2
20260509050058 22 353 3.2 6.4 0.00 1.19 1.19 80 1011.3
20260509045525 22 348 1.6 6.4 0.00 1.19 1.19 80 1011.4
20260509045029 22 135 0.0 0.0 0.00 1.19 1.19 80 1010.5
20260509044536 22 135 0.0 0.0 0.00 1.19 1.19 79 1010.3
20260509044029 22 135 0.0 6.4 0.00 1.19 1.19 79 1010.3
20260509043529 22 171 0.0 6.4 0.00 1.19 1.19 79 1010.1
20260509043038 22 196 0.0 4.8 0.00 1.19 1.19 79 1009.9
20260509042544 22 176 0.0 9.7 0.00 1.19 1.19 80 1009.7
20260509042028 22 175 1.6 9.7 0.00 1.19 1.19 80 1009.6
20260509041534 22 179 0.0 6.4 0.00 1.19 1.19 80 1009.5
20260509041040 22 134 3.2 6.4 0.00 1.19 1.19 80 1009.5
20260509040527 22 133 0.0 1.6 0.00 1.19 1.19 80 1009.6
20260509040058 22 148 0.0 0.0 0.00 1.19 1.19 80 1009.5
20260509035525 22 144 0.0 0.0 0.00 1.19 1.19 80 1009.7
20260509035032 22 127 0.0 0.0 0.00 1.19 1.19 80 1009.7
20260509034523 22 120 0.0 0.0 0.00 1.19 1.19 80 1009.6
20260509034032 22 116 0.0 0.0 0.00 1.19 1.19 80 1009.7
20260509033533 22 97 0.0 0.0 0.00 1.19 1.19 80 1009.6
20260509033053 22 78 0.0 11.3 0.00 1.19 1.19 80 1009.8
20260509032537 22 66 4.8 11.3 0.00 1.19 1.19 80 1009.9
20260509032044 22 61 3.2 11.3 0.00 1.19 1.19 79 1010.0
20260509031545 22 52 1.6 11.3 0.00 1.19 1.19 79 1009.9
20260509031039 22 54 0.0 9.7 0.00 1.19 1.19 79 1009.8
20260509030543 22 68 0.0 9.7 0.00 1.19 1.19 79 1009.4
20260509030025 22 96 0.0 9.7 0.00 1.19 1.19 78 1009.1
20260509025532 22 118 0.0 6.4 0.00 1.19 1.19 78 1008.7
20260509025035 22 115 0.0 6.4 0.00 1.19 1.19 78 1008.4
20260509024523 22 118 0.0 6.4 0.00 1.19 1.19 78 1008.5
20260509024101 22 122 0.0 9.7 0.00 1.19 1.19 78 1008.6
20260509023531 22 131 4.8 14.5 0.00 1.19 1.19 77 1008.4
20260509023038 22 148 3.2 14.5 0.00 1.19 1.19 77 1008.3
20260509022528 22 121 1.6 6.4 0.00 1.19 1.19 77 1008.1
20260509022032 22 169 0.0 8.0 0.00 1.19 1.19 77 1008.1
20260509021544 22 193 0.0 8.0 0.00 1.19 1.19 77 1008.1
20260509021053 22 189 0.0 6.4 0.00 1.19 1.19 77 1008.0
20260509020540 22 189 0.0 9.7 0.00 1.19 1.19 76 1007.9
20260509020029 22 186 0.0 16.1 0.00 1.19 1.19 76 1007.7
20260509015533 22 177 0.0 16.1 0.00 1.19 1.19 76 1007.6
20260509015024 22 212 1.6 16.1 0.00 1.19 1.19 76 1007.6
20260509014528 22 187 3.2 16.1 0.00 1.19 1.19 76 1007.5
20260509014034 22 148 0.0 11.3 0.00 1.19 1.19 75 1007.6
20260509013547 22 211 3.2 11.3 0.00 1.19 1.19 75 1007.8
20260509013054 22 181 1.6 6.4 0.00 1.19 1.19 75 1008.0
20260509012523 22 191 1.6 9.7 0.00 1.19 1.19 75 1008.1
20260509012032 22 191 0.0 12.9 0.00 1.19 1.19 75 1008.2
20260509011539 22 210 0.0 12.9 0.00 1.19 1.19 75 1008.3
20260509011037 22 194 0.0 0.0 0.00 1.19 1.19 75 1008.2
20260509010541 22 195 0.0 4.8 0.00 1.19 1.19 75 1008.1
20260509010030 22 213 0.0 4.8 0.00 1.19 1.19 75 1008.1
20260509005542 23 193 0.0 11.3 0.00 1.19 1.19 74 1008.0
20260509005026 23 204 0.0 16.1 0.00 1.19 1.19 74 1007.9
20260509004537 23 185 3.2 19.3 0.00 1.19 1.19 74 1007.8
20260509004024 23 197 3.2 19.3 0.00 1.19 1.19 74 1007.8
20260509003527 23 210 0.0 16.1 0.00 1.19 1.19 74 1007.7
20260509003027 23 207 0.0 9.7 0.00 1.19 1.19 74 1007.7
20260509002537 23 191 0.0 16.1 0.00 1.19 1.19 73 1007.7
20260509002025 23 204 0.0 16.1 0.00 1.19 1.19 73 1007.6
20260509001529 23 188 6.4 16.1 0.00 1.19 1.19 72 1007.6
20260509001036 23 186 6.4 16.1 0.00 1.19 1.19 72 1007.5
20260509000546 23 179 0.0 16.1 0.00 1.19 1.19 72 1007.5
20260509000048 23 197 3.2 17.7 0.00 1.19 1.19 71 1007.6
20260508235537 23 148 6.4 17.7 0.00 1.19 1.19 71 1007.6
20260508235045 23 213 0.0 4.8 0.00 1.19 1.19 71 1007.8
20260508234551 23 179 0.0 4.8 0.00 1.19 1.19 70 1007.9
20260508234020 23 179 0.0 9.7 0.00 1.19 1.19 70 1007.9
20260508233526 23 183 0.0 9.7 0.00 1.19 1.19 70 1007.9
20260508233040 23 183 0.0 19.3 0.00 1.19 1.19 70 1008.0
20260508232608 23 191 6.4 19.3 0.00 1.19 1.19 69 1008.1
20260508232053 23 190 8.0 17.7 0.00 1.19 1.19 69 1008.1
20260508231542 23 205 8.0 17.7 0.00 1.19 1.19 69 1008.1
20260508231101 23 196 3.2 14.5 0.00 1.19 1.19 69 1008.0
20260508230548 24 174 8.0 16.1 0.00 1.19 1.19 69 1008.0
20260508230033 24 204 6.4 16.1 0.00 1.19 1.19 68 1008.0
20260508225524 24 129 0.0 14.5 0.00 1.19 1.19 68 1008.0
20260508225029 24 166 6.4 14.5 0.00 1.19 1.19 67 1008.0
20260508224537 24 216 1.6 14.5 0.00 1.19 1.19 67 1008.0
20260508224026 24 165 3.2 14.5 0.00 1.19 1.19 67 1008.0
20260508223531 25 193 1.6 16.1 0.00 1.19 1.19 66 1008.1
20260508223040 25 191 1.6 16.1 0.00 1.19 1.19 66 1008.1
20260508222526 25 153 3.2 17.7 0.00 1.19 1.19 65 1008.1
20260508222031 25 168 8.0 17.7 0.00 1.19 1.19 65 1008.1
20260508221519 25 164 11.3 17.7 0.00 1.19 1.19 64 1008.1
20260508221053 25 191 6.4 20.9 0.00 1.19 1.19 63 1008.1
20260508220536 25 188 9.7 20.9 0.00 1.19 1.19 63 1008.1
20260508220027 25 199 4.8 19.3 0.00 1.19 1.19 62 1008.2
20260508215537 25 188 4.8 20.9 0.00 1.19 1.19 62 1008.2
20260508215034 25 163 3.2 20.9 0.00 1.19 1.19 62 1008.1
20260508214523 25 129 3.2 19.3 0.00 1.19 1.19 61 1008.1
20260508214031 25 148 9.7 19.3 0.00 1.19 1.19 61 1008.2
20260508213540 25 144 4.8 20.9 0.00 1.19 1.19 62 1008.2
20260508213044 25 132 11.3 20.9 0.00 1.19 1.19 62 1008.3
20260508212525 25 162 1.6 16.1 0.00 1.19 1.19 63 1008.3
20260508212031 24 165 0.0 11.3 0.00 1.19 1.19 62 1008.6
20260508211534 25 177 3.2 16.1 0.00 1.19 1.19 63 1008.7
20260508211038 25 118 1.6 16.1 0.00 1.19 1.19 64 1008.7
20260508210527 25 148 1.6 11.3 0.00 1.19 1.19 63 1008.9
20260508210034 25 126 1.6 14.5 0.00 1.19 1.19 63 1008.9
20260508205523 25 163 0.0 14.5 0.00 1.19 1.19 63 1008.9
20260508205038 25 118 3.2 11.3 0.00 1.19 1.19 63 1008.9
20260508204520 24 104 0.0 16.1 0.00 1.19 1.19 65 1008.8
20260508204024 24 148 6.4 17.7 0.00 1.19 1.19 64 1008.6
20260508203546 24 110 9.7 19.3 0.00 1.19 1.19 64 1009.0
20260508203030 23 121 8.0 19.3 0.00 1.19 1.19 64 1009.3
20260508202532 23 174 3.2 19.3 0.00 1.19 1.19 65 1009.7
20260508202039 22 181 1.6 17.7 0.00 1.19 1.19 66 1009.9
20260508201522 22 183 9.7 17.7 0.00 1.19 1.19 66 1010.2
20260508201022 22 191 3.2 19.3 0.00 1.19 1.19 66 1010.3
20260508200528 22 219 8.0 19.3 0.00 1.19 1.19 66 1010.5
20260508200039 22 225 3.2 17.7 0.00 1.19 1.19 66 1010.6
20260508195525 23 193 6.4 17.7 0.00 1.19 1.19 65 1010.7
20260508195033 23 136 1.6 14.5 0.00 1.19 1.19 65 1010.6
20260508194523 23 190 1.6 9.7 0.00 1.19 1.19 65 1010.5
20260508194032 23 211 0.0 11.3 0.00 1.19 1.19 65 1010.6
20260508193527 23 133 0.0 19.3 0.00 1.19 1.19 65 1010.5
20260508193028 23 208 4.8 19.3 0.00 1.19 1.19 64 1010.5
20260508192536 23 189 1.6 9.7 0.00 1.19 1.19 65 1010.5
20260508192042 23 167 1.6 17.7 0.00 1.19 1.19 65 1010.5
20260508191527 23 175 6.4 17.7 0.00 1.19 1.19 65 1010.6
20260508191037 23 177 4.8 16.1 0.00 1.19 1.19 64 1010.7
20260508190523 23 204 3.2 14.5 0.00 1.19 1.19 63 1010.7
20260508190028 23 183 4.8 14.5 0.00 1.19 1.19 64 1010.7
20260508185530 23 212 0.0 11.3 0.00 1.19 1.19 64 1010.7
20260508185034 23 177 1.6 11.3 0.00 1.19 1.19 63 1010.7
20260508184541 23 153 4.8 9.7 0.00 1.19 1.19 64 1010.8
20260508184028 23 195 1.6 14.5 0.00 1.19 1.19 63 1010.8
20260508183538 23 180 6.4 16.1 0.00 1.19 1.19 63 1010.9
20260508183026 23 179 0.0 16.1 0.00 1.19 1.19 62 1011.0
20260508182529 24 133 3.2 14.5 0.00 1.19 1.19 62 1011.1
20260508182035 24 187 1.6 14.5 0.00 1.19 1.19 63 1011.1
20260508181520 24 179 0.0 14.5 0.00 1.19 1.19 62 1011.3
20260508181031 23 182 0.0 16.1 0.00 1.19 1.19 63 1011.3
20260508180603 23 189 4.8 16.1 0.00 1.19 1.19 63 1011.4
20260508180043 23 177 3.2 17.7 0.00 1.19 1.19 62 1011.5
20260508175551 23 196 1.6 17.7 0.00 1.19 1.19 63 1011.6
20260508175040 23 190 4.8 14.5 0.00 1.19 1.19 62 1011.8
20260508174533 23 217 1.6 11.3 0.00 1.19 1.19 62 1011.8